Weather History for Breckenridge, TX

Change the Weather History Date:

Tuesday, October 9, 2012

  Actual Average (KABI) Record (KABI)
Temperature  
Mean Temperature 75 °F 68 °F  
Max Temperature 86 °F 79 °F 93 °F (1972)
Min Temperature 64 °F 56 °F 39 °F (2000)
Degree Days  
Heating Degree Days 0 2  
Month to date heating degree days 14  
Since 1 July heating degree days 25  
Cooling Degree Days 10 5  
Month to date cooling degree days 51  
Year to date cooling degree days 2322  
Growing Degree Days 25 (Base 50)    
Moisture  
Dew Point 56 °F    
Average Humidity 50    
Maximum Humidity 83    
Minimum Humidity 33    
Precipitation  
Precipitation 0.00 in 0.10 in 1.52 in (1939)
Month to date precipitation 0.80  
Year to date precipitation 20.00  
Sea Level Pressure  
Sea Level Pressure 29.89 in    
Wind  
Wind Speed 13 mph (SSW)    
Max Wind Speed 17 mph    
Max Gust Speed 25 mph    
Visibility 10 miles    
Events      
T = Trace of Precipitation, MM = Missing Value Source: NWS Daily Summary

Daily Weather History Graph

Daily Weather History Graph

Search for Another Location

Airport:

Trip Planner

Search our weather history database for the weather conditions in past years. The results will help you decide how hot, cold, wet, or windy it might be!

Date:

Astronomy

Oct. 09, 2012 Rise Set
Actual Time 7:35 AM CDT 7:09 PM CDT
Civil Twilight 7:10 AM CDT 7:33 PM CDT
Nautical Twilight 6:42 AM CDT 8:02 PM CDT
Astronomical Twilight 6:13 AM CDT 8:30 PM CDT
Moon 1:32 AM CDT (10/9) 3:20 PM CDT (10/9)
Length of Visible Light 12h 23m
Length of Day
11h 33m
Last Quarter, 36% of the Moon is Illuminated
Oct 9
Last Quarter
Oct 15
New
Oct 21
First Quarter
Oct 29
Full
Nov 6
Last Quarter

Hourly Weather History & Observations

Time (CDT) Temp. Heat Index Dew Point Humidity Pressure Visibility Wind Dir Wind Speed Gust Speed Precip Events Conditions
12:55 PM 77.0 °F - 57.2 °F 50% 29.91 in 10.0 mi SW 17.3 mph 24.2 mph N/A   Clear
1:55 PM 80.6 °F 80.8 °F 57.2 °F 45% 29.89 in 10.0 mi SW 17.3 mph 21.9 mph N/A   Clear
2:35 PM 82.4 °F 81.7 °F 55.4 °F 39% 29.86 in 10.0 mi SW 17.3 mph 23.0 mph N/A   Clear
2:55 PM 84.2 °F 83.0 °F 55.4 °F 37% 29.86 in 10.0 mi WSW 17.3 mph 24.2 mph N/A   Clear
3:15 PM 84.2 °F 83.0 °F 55.4 °F 37% 29.85 in 10.0 mi SSW 16.1 mph 23.0 mph N/A   Clear
3:35 PM 86.0 °F 84.5 °F 55.4 °F 35% 29.85 in 10.0 mi WSW 17.3 mph 24.2 mph N/A   Clear
3:55 PM 86.0 °F 84.5 °F 55.4 °F 35% 29.84 in 10.0 mi WSW 15.0 mph 25.3 mph N/A   Clear
4:15 PM 86.0 °F 84.5 °F 55.4 °F 35% 29.84 in 10.0 mi SW 15.0 mph 20.7 mph N/A   Clear
4:35 PM 86.0 °F 84.2 °F 53.6 °F 33% 29.84 in 10.0 mi SW 16.1 mph 21.9 mph N/A   Clear
4:55 PM 86.0 °F 84.5 °F 55.4 °F 35% 29.84 in 10.0 mi SW 11.5 mph 18.4 mph N/A   Clear
5:15 PM 86.0 °F 84.2 °F 53.6 °F 33% 29.84 in 10.0 mi WSW 13.8 mph 18.4 mph N/A   Clear
5:35 PM 86.0 °F 84.5 °F 55.4 °F 35% 29.84 in 10.0 mi WSW 12.7 mph 16.1 mph N/A   Clear
5:55 PM 86.0 °F 84.2 °F 53.6 °F 33% 29.85 in 10.0 mi WSW 9.2 mph 23.0 mph N/A   Clear
6:15 PM 86.0 °F 84.5 °F 55.4 °F 35% 29.85 in 10.0 mi North - - N/A   Clear
6:35 PM 82.4 °F 81.7 °F 55.4 °F 39% 29.86 in 10.0 mi North - - N/A   Clear
6:55 PM 80.6 °F 80.5 °F 55.4 °F 42% 29.87 in 10.0 mi SW 5.8 mph - N/A   Clear
7:15 PM 77.0 °F - 55.4 °F 47% 29.88 in 10.0 mi SW 3.5 mph - N/A   Clear
7:35 PM 73.4 °F - 53.6 °F 50% 29.88 in 10.0 mi SSE 5.8 mph - N/A   Clear
7:55 PM 77.0 °F - 57.2 °F 50% 29.88 in 10.0 mi SSW 6.9 mph - N/A   Clear
8:15 PM 75.2 °F - 57.2 °F 53% 29.89 in 10.0 mi SSW 8.1 mph - N/A   Clear
8:35 PM 73.4 °F - 57.2 °F 57% 29.90 in 10.0 mi South 6.9 mph - N/A   Clear
8:55 PM 73.4 °F - 57.2 °F 57% 29.91 in 10.0 mi South 9.2 mph - N/A   Clear
9:15 PM 71.6 °F - 55.4 °F 57% 29.92 in 10.0 mi South 5.8 mph - N/A   Clear
9:35 PM 69.8 °F - 57.2 °F 64% 29.93 in 10.0 mi SSW 6.9 mph - N/A   Clear
9:55 PM 68.0 °F - 55.4 °F 64% 29.93 in 10.0 mi South 5.8 mph - N/A   Clear
10:15 PM 68.0 °F - 57.2 °F 68% 29.94 in 10.0 mi South 5.8 mph - N/A   Clear
10:35 PM 66.2 °F - 57.2 °F 73% 29.95 in 10.0 mi South 4.6 mph - N/A   Clear
10:55 PM 66.2 °F - 57.2 °F 73% 29.96 in 10.0 mi South 5.8 mph - N/A   Clear
11:15 PM 64.4 °F - 57.2 °F 77% 29.96 in 10.0 mi Calm Calm - N/A   Clear
11:35 PM 64.4 °F - 59.0 °F 83% 29.97 in 10.0 mi NNE 6.9 mph - N/A   Clear
11:55 PM 64.4 °F - 57.2 °F 77% 29.97 in 10.0 mi East 3.5 mph - N/A   Clear